Location: Gebenbach
(49.5378°N, 11.8735°E)
Time: 11:56:04
(UTC+00:00)

COSMOS 2455 - Pass Details

Date: 29 October 2020
Orbit: 899 x 911 km, 67.1° (Epoch: 24 November)

Event Time Altitude Azimuth Distance (km) Brightness Sun altitude
Rises 18:11:36 0° 319° (NW) 3,552 6.6 -22.6°
Reaches altitude 10° 18:14:54 10° 337° (NNW) 2,608 5.6 -23.2°
Maximum altitude 18:19:12 20° 22° (NNE) 2,004 4.5 -23.9°
Enters shadow 18:19:42 19° 29° (NNE) 2,013 4.4 -23.9°
